Location: Proctor
(47.8934°N, 114.3048°W)
Time: 10:37:00
(UTC+00:00)

Courier 1B Rocket - Pass Details

Date: 15 June 2024
Orbit: 920 x 1201 km, 28.2° (Epoch: 17 July)

Event Time Altitude Azimuth Distance (km) Brightness Sun altitude
Rises 12:28:44 0° 208° (SSW) 3,907 7.6 6.4°
Reaches altitude 10° 12:34:13 10° 175° (S) 3,025 7.4 7.2°
Maximum altitude 12:36:01 11° 161° (SSE) 2,974 7.5 7.5°
Drops below altitude 10° 12:37:50 10° 147° (SSE) 3,065 7.7 7.7°
Sets 12:43:32 0° 114° (ESE) 4,075 8.9 8.6°
